Content
SEND FEEDBACK

Daily
Averages
Monthly
Summary
Switzerland

ZERMATT, SWITZERLAND


Home > Europe > Switzerland
Elevation: 5282 feet     Latitude: 46 01N     Longitude: 007 45E

WEATHER
 
SELECT A DAY
Number of Records: 133,525;   Date Range: 7/1/96 - 8/31/14
 
SHARE

PRINT THIS DATA

[ ← Previous Day ]
WEATHER ALMANAC - JANUARY 24, 2013
[ Next Day → ]
[ °C ]   °F
Weather ElementAverageHighLow
Temperature2.3 °F5 °F (1:00 am)1 °F (10:00 pm)
Dewpoint-3.9 °F (1:00 am)-9.4 °F (10:55 pm)
Humidity73.4 %85 % (1:55 am)53 % (7:00 am)
Barometer29.35 in29.42 in (9:55 pm)29.30 in (5:55 am)
Wind Speed13.9 mph25.3 mph (10:55 pm)
Weather ElementAverage
Visibility11.5 mi
Wind DirectionENE (77.9 °)

Weather ElementTotal
Precipitation---
Heating Degree Days62 (Base 65)
Averaged from 29 records on January 24, 2013
WEATHER CONDITIONS BREAKOUT
WIND DIRECTION BREAKOUT
WEATHER BY HOUR - JANUARY 24, 2013
[ °C ]   °F
Local TimeTemperatureDewpointHumidityBarometerVisibilityWind DirectionWind SpeedGust SpeedPrecipitationEventsConditions
1:00 AM5.0 °F0.0 °F72 %0.0 miSW (230°)9.2 mphFogHeavy Fog
1:55 AM3.2 °F-0.4 °F85 %29.36 in0.3 miSW (220°)9.2 mphFogLight Freezing Fog
3:55 AM3.2 °F-2.2 °F78 %29.33 in6.2 miENE (70°)11.5 mphPartly Cloudy
4:00 AM4.0 °F-2.0 °F64 %6.0 miENE (70°)11.5 mphPartly Cloudy
4:55 AM3.2 °F-2.2 °F78 %29.33 inENE (60°)9.2 mphClear
5:55 AM3.2 °F-2.2 °F78 %29.30 inENE (60°)10.4 mphClear
6:55 AM1.4 °F-7.6 °F66 %29.33 inEast (90°)8.1 mphClear
7:00 AM2.0 °F-7.0 °F53 %6.0 miEast (90°)8.1 mphPartly Cloudy
7:55 AM3.2 °F-7.6 °F61 %29.33 inEast (80°)9.2 mphClear
8:55 AM3.2 °F-5.8 °F66 %29.33 inENE (60°)10.4 mphClear
9:55 AM1.4 °F-4.0 °F78 %29.33 inENE (60°)11.5 mphClear
10:55 AM1.4 °F-4.0 °F78 %29.33 inNE (50°)13.8 mphClear
11:55 AM1.4 °F-2.2 °F85 %29.33 inENE (60°)12.7 mphClear
12:55 PM1.4 °F-2.2 °F85 %29.33 inENE (70°)13.8 mphClear
1:00 PM2.0 °F-3.0 °F70 %47.0 miENE (70°)13.8 mphClear
1:55 PM1.4 °F-2.2 °F85 %29.33 inENE (60°)11.5 mphClear
2:55 PM3.2 °F-5.8 °F66 %29.33 inENE (60°)9.2 mphClear
3:55 PM3.2 °F-4.0 °F72 %29.33 inENE (70°)11.5 mphClear
4:00 PM2.0 °F-4.0 °F65 %37.0 miENE (70°)11.5 mphClear
4:55 PM1.4 °F-4.0 °F78 %29.36 inENE (70°)13.8 mphClear
5:55 PM1.4 °F-2.2 °F85 %29.36 in6.2 miENE (60°)17.3 mphPartly Cloudy
6:55 PM3.2 °F-0.4 °F85 %29.36 inENE (70°)11.5 mphClear
7:00 PM2.0 °F-1.0 °F83 %6.0 miENE (70°)11.5 mph
7:55 PM1.4 °F-2.2 °F85 %29.39 inENE (70°)23.0 mphClear
8:55 PM3.2 °F-2.2 °F78 %29.39 inEast (80°)20.7 mphClear
9:55 PM1.4 °F-5.8 °F72 %29.42 inENE (60°)24.2 mphClear
10:00 PM1.0 °F-7.0 °F55 %6.0 miENE (60°)24.2 mph
10:55 PM1.4 °F-9.4 °F61 %29.42 inENE (70°)25.3 mphClear
11:55 PM1.4 °F-9.4 °F61 %29.42 in6.2 miNE (50°)24.2 mphPartly Cloudy
Hourly data recorded from LIMH, located miles away from Zermatt, Switzerland







STORIES FROM OUR PARTNERS